Year,Month,Day,Hour,Minute,Value (Times are PST for temperature in C)
2009,07,30,00,00,23.90
2009,07,30,00,01,23.90
2009,07,30,00,02,23.80
2009,07,30,00,03,23.80
2009,07,30,00,04,23.70
2009,07,30,00,05,23.70
2009,07,30,00,06,23.70
2009,07,30,00,07,23.70
2009,07,30,00,08,23.60
2009,07,30,00,09,23.60
2009,07,30,00,10,23.50
2009,07,30,00,11,23.40
2009,07,30,00,12,23.40
2009,07,30,00,13,23.40
2009,07,30,00,14,23.30
2009,07,30,00,15,23.30
2009,07,30,00,16,23.30
2009,07,30,00,17,23.30
2009,07,30,00,18,23.30
2009,07,30,00,19,23.30
2009,07,30,00,20,23.30
2009,07,30,00,21,23.30
2009,07,30,00,22,23.30
2009,07,30,00,23,23.20
2009,07,30,00,24,23.20
2009,07,30,00,25,23.20
2009,07,30,00,26,23.20
2009,07,30,00,27,23.10
2009,07,30,00,28,23.10
2009,07,30,00,29,23.10
2009,07,30,00,30,23.10
2009,07,30,00,31,23.10
2009,07,30,00,32,23.10
2009,07,30,00,33,23.10
2009,07,30,00,34,23.10
2009,07,30,00,35,23.00
2009,07,30,00,36,22.90
2009,07,30,00,37,22.90
2009,07,30,00,38,22.90
2009,07,30,00,39,22.90
2009,07,30,00,40,22.90
2009,07,30,00,41,22.90
2009,07,30,00,42,22.90
2009,07,30,00,43,22.90
2009,07,30,00,44,22.90
2009,07,30,00,45,22.90
2009,07,30,00,46,22.90
2009,07,30,00,47,22.90
2009,07,30,00,48,22.90
2009,07,30,00,49,22.90
2009,07,30,00,50,22.90
2009,07,30,00,51,22.90
2009,07,30,00,52,23.00
2009,07,30,00,53,23.10
2009,07,30,00,54,23.10
2009,07,30,00,55,23.20
2009,07,30,00,56,23.20
2009,07,30,00,57,23.20
2009,07,30,00,58,23.20
2009,07,30,00,59,23.20
2009,07,30,01,00,23.20
2009,07,30,01,01,23.20
2009,07,30,01,02,23.10
2009,07,30,01,03,23.10
2009,07,30,01,04,23.10
2009,07,30,01,05,23.10
2009,07,30,01,06,23.00
2009,07,30,01,07,22.90
2009,07,30,01,08,22.90
2009,07,30,01,09,22.90
2009,07,30,01,10,22.90
2009,07,30,01,11,22.90
2009,07,30,01,12,22.90
2009,07,30,01,13,22.90
2009,07,30,01,14,22.90
2009,07,30,01,15,22.90
2009,07,30,01,16,22.90
2009,07,30,01,17,22.90
2009,07,30,01,18,22.90
2009,07,30,01,19,22.90
2009,07,30,01,20,23.00
2009,07,30,01,21,23.10
2009,07,30,01,22,23.10
2009,07,30,01,23,23.10
2009,07,30,01,24,23.10
2009,07,30,01,25,23.10
2009,07,30,01,26,23.10
2009,07,30,01,27,23.10
2009,07,30,01,28,23.10
2009,07,30,01,29,23.00
2009,07,30,01,30,22.90
2009,07,30,01,31,22.90
2009,07,30,01,32,22.90
2009,07,30,01,33,22.90
2009,07,30,01,34,22.90
2009,07,30,01,35,22.90
2009,07,30,01,36,22.90
2009,07,30,01,37,22.90
2009,07,30,01,38,22.90
2009,07,30,01,39,22.90
2009,07,30,01,40,22.90
2009,07,30,01,41,22.90
2009,07,30,01,42,22.90
2009,07,30,01,43,22.90
2009,07,30,01,44,22.90
2009,07,30,01,45,22.90
2009,07,30,01,46,22.90
2009,07,30,01,47,22.90
2009,07,30,01,48,22.90
2009,07,30,01,49,22.80
2009,07,30,01,50,22.80
2009,07,30,01,51,22.80
2009,07,30,01,52,22.80
2009,07,30,01,53,22.70
2009,07,30,01,54,22.70
2009,07,30,01,55,22.70
2009,07,30,01,56,22.70
2009,07,30,01,57,22.60
2009,07,30,01,58,22.60
2009,07,30,01,59,22.50
2009,07,30,02,00,22.50
2009,07,30,02,01,22.50
2009,07,30,02,02,22.40
2009,07,30,02,03,22.40
2009,07,30,02,04,22.30
2009,07,30,02,05,22.30
2009,07,30,02,06,22.30
2009,07,30,02,07,22.20
2009,07,30,02,08,22.20
2009,07,30,02,09,22.20
2009,07,30,02,10,22.20
2009,07,30,02,11,22.20
2009,07,30,02,12,22.20
2009,07,30,02,13,22.20
2009,07,30,02,14,22.30
2009,07,30,02,15,22.30
2009,07,30,02,16,22.30
2009,07,30,02,17,22.30
2009,07,30,02,18,22.40
2009,07,30,02,19,22.40
2009,07,30,02,20,22.40
2009,07,30,02,21,22.40
2009,07,30,02,22,22.40
2009,07,30,02,23,22.40
2009,07,30,02,24,22.40
2009,07,30,02,25,22.40
2009,07,30,02,26,22.30
2009,07,30,02,27,22.30
2009,07,30,02,28,22.30
2009,07,30,02,29,22.30
2009,07,30,02,30,22.30
2009,07,30,02,31,22.30
2009,07,30,02,32,22.20
2009,07,30,02,33,22.20
2009,07,30,02,34,22.20
2009,07,30,02,35,22.20
2009,07,30,02,36,22.20
2009,07,30,02,37,22.10
2009,07,30,02,38,22.10
2009,07,30,02,39,22.10
2009,07,30,02,40,22.00
2009,07,30,02,41,22.00
2009,07,30,02,42,21.90
2009,07,30,02,43,21.90
2009,07,30,02,44,21.80
2009,07,30,02,45,21.80
2009,07,30,02,46,21.80
2009,07,30,02,47,21.70
2009,07,30,02,48,21.70
2009,07,30,02,49,21.70
2009,07,30,02,50,21.60
2009,07,30,02,51,21.60
2009,07,30,02,52,21.60
2009,07,30,02,53,21.60
2009,07,30,02,54,21.60
2009,07,30,02,55,21.60
2009,07,30,02,56,21.60
2009,07,30,02,57,21.60
2009,07,30,02,58,21.50
2009,07,30,02,59,21.40
2009,07,30,03,00,21.40
2009,07,30,03,01,21.40
2009,07,30,03,02,21.40
2009,07,30,03,03,21.30
2009,07,30,03,04,21.30
2009,07,30,03,05,21.30
2009,07,30,03,06,21.30
2009,07,30,03,07,21.30
2009,07,30,03,08,21.30
2009,07,30,03,09,21.30
2009,07,30,03,10,21.30
2009,07,30,03,11,21.30
2009,07,30,03,12,21.30
2009,07,30,03,13,21.30
2009,07,30,03,14,21.30
2009,07,30,03,15,21.30
2009,07,30,03,16,21.30
2009,07,30,03,17,21.30
2009,07,30,03,18,21.30
2009,07,30,03,19,21.30
2009,07,30,03,20,21.30
2009,07,30,03,21,21.30
2009,07,30,03,22,21.30
2009,07,30,03,23,21.20
2009,07,30,03,24,21.20
2009,07,30,03,25,21.20
2009,07,30,03,26,21.10
2009,07,30,03,27,21.10
2009,07,30,03,28,21.00
2009,07,30,03,29,21.00
2009,07,30,03,30,21.00
2009,07,30,03,31,21.00
2009,07,30,03,32,20.90
2009,07,30,03,33,20.90
2009,07,30,03,34,20.90
2009,07,30,03,35,20.90
2009,07,30,03,36,20.80
2009,07,30,03,37,20.80
2009,07,30,03,38,20.80
2009,07,30,03,39,20.80
2009,07,30,03,40,20.80
2009,07,30,03,41,20.80
2009,07,30,03,42,20.80
2009,07,30,03,43,20.80
2009,07,30,03,44,20.80
2009,07,30,03,45,20.80
2009,07,30,03,46,20.80
2009,07,30,03,47,20.80
2009,07,30,03,48,20.90
2009,07,30,03,49,20.90
2009,07,30,03,50,20.90
2009,07,30,03,51,20.90
2009,07,30,03,52,20.90
2009,07,30,03,53,20.90
2009,07,30,03,54,20.90
2009,07,30,03,55,20.90
2009,07,30,03,56,20.90
2009,07,30,03,57,20.90
2009,07,30,03,58,20.90
2009,07,30,03,59,21.00
2009,07,30,04,00,21.00
2009,07,30,04,01,21.00
2009,07,30,04,02,21.10
2009,07,30,04,03,21.20
2009,07,30,04,04,21.20
2009,07,30,04,05,21.30
2009,07,30,04,06,21.30
2009,07,30,04,07,21.30
2009,07,30,04,08,21.40
2009,07,30,04,09,21.40
2009,07,30,04,10,21.40
2009,07,30,04,11,21.40
2009,07,30,04,12,21.60
2009,07,30,04,13,21.60
2009,07,30,04,14,21.60
2009,07,30,04,15,21.60
2009,07,30,04,16,21.60
2009,07,30,04,17,21.60
2009,07,30,04,18,21.60
2009,07,30,04,19,21.60
2009,07,30,04,20,21.50
2009,07,30,04,21,21.40
2009,07,30,04,22,21.40
2009,07,30,04,23,21.40
2009,07,30,04,24,21.40
2009,07,30,04,25,21.40
2009,07,30,04,26,21.40
2009,07,30,04,27,21.40
2009,07,30,04,28,21.40
2009,07,30,04,29,21.40
2009,07,30,04,30,21.30
2009,07,30,04,31,21.30
2009,07,30,04,32,21.30
2009,07,30,04,33,21.30
2009,07,30,04,34,21.30
2009,07,30,04,35,21.20
2009,07,30,04,36,21.20
2009,07,30,04,37,21.30
2009,07,30,04,38,21.30
2009,07,30,04,39,21.30
2009,07,30,04,40,21.30
2009,07,30,04,41,21.30
2009,07,30,04,42,21.30
2009,07,30,04,43,21.30
2009,07,30,04,44,21.30
2009,07,30,04,45,21.30
2009,07,30,04,46,21.30
2009,07,30,04,47,21.30
2009,07,30,04,48,21.30
2009,07,30,04,49,21.30
2009,07,30,04,50,21.30
2009,07,30,04,51,21.30
2009,07,30,04,52,21.30
2009,07,30,04,53,21.30
2009,07,30,04,54,21.30
2009,07,30,04,55,21.20
2009,07,30,04,56,21.20
2009,07,30,04,57,21.20
2009,07,30,04,58,21.10
2009,07,30,04,59,21.10
2009,07,30,05,00,21.10
2009,07,30,05,01,21.00
2009,07,30,05,02,21.00
2009,07,30,05,03,21.00
2009,07,30,05,04,20.90
2009,07,30,05,05,20.90
2009,07,30,05,06,20.90
2009,07,30,05,07,20.80
2009,07,30,05,08,20.80
2009,07,30,05,09,20.70
2009,07,30,05,10,20.60
2009,07,30,05,11,20.60
2009,07,30,05,12,20.60
2009,07,30,05,13,20.50
2009,07,30,05,14,20.50
2009,07,30,05,15,20.50
2009,07,30,05,16,20.50
2009,07,30,05,17,20.50
2009,07,30,05,18,20.50
2009,07,30,05,19,20.60
2009,07,30,05,20,20.60
2009,07,30,05,21,20.70
2009,07,30,05,22,20.70
2009,07,30,05,23,20.70
2009,07,30,05,24,20.80
2009,07,30,05,25,20.80
2009,07,30,05,26,20.80
2009,07,30,05,27,20.90
2009,07,30,05,28,20.90
2009,07,30,05,29,20.90
2009,07,30,05,30,21.00
2009,07,30,05,31,21.00
2009,07,30,05,32,21.00
2009,07,30,05,33,21.10
2009,07,30,05,34,21.10
2009,07,30,05,35,21.10
2009,07,30,05,36,21.10
2009,07,30,05,37,21.10
2009,07,30,05,38,21.00
2009,07,30,05,39,21.00
2009,07,30,05,40,20.90
2009,07,30,05,41,20.90
2009,07,30,05,42,20.80
2009,07,30,05,43,20.80
2009,07,30,05,44,20.80
2009,07,30,05,45,20.80
2009,07,30,05,46,20.90
2009,07,30,05,47,20.90
2009,07,30,05,48,20.90
2009,07,30,05,49,20.90
2009,07,30,05,50,20.90
2009,07,30,05,51,20.90
2009,07,30,05,52,20.90
2009,07,30,05,53,20.90
2009,07,30,05,54,20.90
2009,07,30,05,55,20.90
2009,07,30,05,56,20.80
2009,07,30,05,57,20.80
2009,07,30,05,58,20.80
2009,07,30,05,59,20.70
2009,07,30,06,00,20.70
2009,07,30,06,01,20.60
2009,07,30,06,02,20.50
2009,07,30,06,03,20.50
2009,07,30,06,04,20.50
2009,07,30,06,05,20.40
2009,07,30,06,06,20.30
2009,07,30,06,07,20.30
2009,07,30,06,08,20.30
2009,07,30,06,09,20.30
2009,07,30,06,10,20.40
2009,07,30,06,11,20.50
2009,07,30,06,12,20.50
2009,07,30,06,13,20.60
2009,07,30,06,14,20.70
2009,07,30,06,15,20.70
2009,07,30,06,16,20.80
2009,07,30,06,17,20.80
2009,07,30,06,18,20.90
2009,07,30,06,19,20.90
2009,07,30,06,20,20.90
2009,07,30,06,21,21.00
2009,07,30,06,22,21.00
2009,07,30,06,23,20.90
2009,07,30,06,24,20.90
2009,07,30,06,25,20.90
2009,07,30,06,26,20.90
2009,07,30,06,27,20.90
2009,07,30,06,28,21.00
2009,07,30,06,29,21.00
2009,07,30,06,30,21.00
2009,07,30,06,31,21.10
2009,07,30,06,32,21.10
2009,07,30,06,33,21.20
2009,07,30,06,34,21.20
2009,07,30,06,35,21.20
2009,07,30,06,36,21.20
2009,07,30,06,37,21.20
2009,07,30,06,38,21.20
2009,07,30,06,39,21.20
2009,07,30,06,40,21.30
2009,07,30,06,41,21.30
2009,07,30,06,42,21.30
2009,07,30,06,43,21.30
2009,07,30,06,44,21.30
2009,07,30,06,45,21.30
2009,07,30,06,46,21.20
2009,07,30,06,47,21.20
2009,07,30,06,48,21.20
2009,07,30,06,49,21.20
2009,07,30,06,50,21.20
2009,07,30,06,51,21.20
2009,07,30,06,52,21.20
2009,07,30,06,53,21.20
2009,07,30,06,54,21.20
2009,07,30,06,55,21.20
2009,07,30,06,56,21.20
2009,07,30,06,57,21.20
2009,07,30,06,58,21.20
2009,07,30,06,59,21.20
2009,07,30,07,00,21.20
2009,07,30,07,01,21.20
2009,07,30,07,02,21.30
2009,07,30,07,03,21.30
2009,07,30,07,04,21.30
2009,07,30,07,05,21.30
2009,07,30,07,06,21.40
2009,07,30,07,07,21.50
2009,07,30,07,08,21.60
2009,07,30,07,09,21.60
2009,07,30,07,10,21.60
2009,07,30,07,11,21.70
2009,07,30,07,12,21.80
2009,07,30,07,13,21.90
2009,07,30,07,14,22.00
2009,07,30,07,15,22.10
2009,07,30,07,16,22.20
2009,07,30,07,17,22.30
2009,07,30,07,18,22.40
2009,07,30,07,19,22.50
2009,07,30,07,20,22.60
2009,07,30,07,21,22.70
2009,07,30,07,22,22.80
2009,07,30,07,23,22.80
2009,07,30,07,24,22.90
2009,07,30,07,25,22.90
2009,07,30,07,26,23.00
2009,07,30,07,27,23.20
2009,07,30,07,28,23.20
2009,07,30,07,29,23.30
2009,07,30,07,30,23.30
2009,07,30,07,31,23.40
2009,07,30,07,32,23.40
2009,07,30,07,33,23.60
2009,07,30,07,34,23.60
2009,07,30,07,35,23.70
2009,07,30,07,36,23.70
2009,07,30,07,37,23.70
2009,07,30,07,38,23.70
2009,07,30,07,39,23.70
2009,07,30,07,40,23.80
2009,07,30,07,41,23.80
2009,07,30,07,42,23.90
2009,07,30,07,43,23.90
2009,07,30,07,44,23.90
2009,07,30,07,45,24.00
2009,07,30,07,46,24.10
2009,07,30,07,47,24.10
2009,07,30,07,48,24.10
2009,07,30,07,49,24.20
2009,07,30,07,50,24.20
2009,07,30,07,51,24.30
2009,07,30,07,52,24.30
2009,07,30,07,53,24.40
2009,07,30,07,54,24.40
2009,07,30,07,55,24.50
2009,07,30,07,56,24.50
2009,07,30,07,57,24.50
2009,07,30,07,58,24.60
2009,07,30,07,59,24.60
2009,07,30,08,00,24.70
2009,07,30,08,01,24.70
2009,07,30,08,02,24.70
2009,07,30,08,03,24.70
2009,07,30,08,04,24.70
2009,07,30,08,05,24.70
2009,07,30,08,06,24.70
2009,07,30,08,07,24.70
2009,07,30,08,08,24.70
2009,07,30,08,09,24.80
2009,07,30,08,10,24.80
2009,07,30,08,11,24.80
2009,07,30,08,12,24.90
2009,07,30,08,13,24.90
2009,07,30,08,14,24.90
2009,07,30,08,15,24.90
2009,07,30,08,16,25.00
2009,07,30,08,17,25.00
2009,07,30,08,18,25.00
2009,07,30,08,19,25.00
2009,07,30,08,20,25.10
2009,07,30,08,21,25.10
2009,07,30,08,22,25.10
2009,07,30,08,23,25.10
2009,07,30,08,24,25.20
2009,07,30,08,25,25.20
2009,07,30,08,26,25.20
2009,07,30,08,27,25.20
2009,07,30,08,28,25.20
2009,07,30,08,29,25.20
2009,07,30,08,30,25.30
2009,07,30,08,31,25.30
2009,07,30,08,32,25.30
2009,07,30,08,33,25.30
2009,07,30,08,34,25.40
2009,07,30,08,35,25.40
2009,07,30,08,36,25.50
2009,07,30,08,37,25.50
2009,07,30,08,38,25.50
2009,07,30,08,39,25.60
2009,07,30,08,40,25.60
2009,07,30,08,41,25.70
2009,07,30,08,42,25.70
2009,07,30,08,43,25.80
2009,07,30,08,44,25.80
2009,07,30,08,45,25.90
2009,07,30,08,46,25.90
2009,07,30,08,47,25.90
2009,07,30,08,48,25.90
2009,07,30,08,49,25.90
2009,07,30,08,50,25.90
2009,07,30,08,51,25.90
2009,07,30,08,52,25.90
2009,07,30,08,53,25.90
2009,07,30,08,54,25.90
2009,07,30,08,55,25.90
2009,07,30,08,56,25.90
2009,07,30,08,57,26.00
2009,07,30,08,58,26.00
2009,07,30,08,59,26.00
2009,07,30,09,00,26.00
2009,07,30,09,01,26.00
2009,07,30,09,02,26.00
2009,07,30,09,03,26.10
2009,07,30,09,04,26.10
2009,07,30,09,05,26.20
2009,07,30,09,06,26.30
2009,07,30,09,07,26.30
2009,07,30,09,08,26.40
2009,07,30,09,09,26.40
2009,07,30,09,10,26.50
2009,07,30,09,11,26.60
2009,07,30,09,12,26.60
2009,07,30,09,13,26.60
2009,07,30,09,14,26.60
2009,07,30,09,15,26.60
2009,07,30,09,16,26.70
2009,07,30,09,17,26.70
2009,07,30,09,18,26.80
2009,07,30,09,19,26.90
2009,07,30,09,20,26.90
2009,07,30,09,21,27.00
2009,07,30,09,22,27.10
2009,07,30,09,23,27.20
2009,07,30,09,24,27.20
2009,07,30,09,25,27.30
2009,07,30,09,26,27.30
2009,07,30,09,27,27.20
2009,07,30,09,28,27.20
2009,07,30,09,29,27.20
2009,07,30,09,30,27.20
2009,07,30,09,31,27.10
2009,07,30,09,32,27.20
2009,07,30,09,33,27.10
2009,07,30,09,34,27.10
2009,07,30,09,35,27.00
2009,07,30,09,36,26.90
2009,07,30,09,37,27.00
2009,07,30,09,38,26.90
2009,07,30,09,39,26.90
2009,07,30,09,40,26.90
2009,07,30,09,41,26.80
2009,07,30,09,42,26.80
2009,07,30,09,43,26.80
2009,07,30,09,44,26.80
2009,07,30,09,45,26.80
2009,07,30,09,46,26.70
2009,07,30,09,47,26.50
2009,07,30,09,48,26.30
2009,07,30,09,49,26.10
2009,07,30,09,50,26.00
2009,07,30,09,51,25.90
2009,07,30,09,52,26.00
2009,07,30,09,53,26.00
2009,07,30,09,54,26.10
2009,07,30,09,55,26.20
2009,07,30,09,56,26.30
2009,07,30,09,57,26.30
2009,07,30,09,58,26.40
2009,07,30,09,59,26.40
2009,07,30,10,00,26.50
2009,07,30,10,01,26.60
2009,07,30,10,02,26.50
2009,07,30,10,03,26.40
2009,07,30,10,04,26.30
2009,07,30,10,05,26.20
2009,07,30,10,06,26.10
2009,07,30,10,07,25.90
2009,07,30,10,08,25.90
2009,07,30,10,09,25.80
2009,07,30,10,10,25.70
2009,07,30,10,11,25.60
2009,07,30,10,12,25.60
2009,07,30,10,13,25.60
2009,07,30,10,14,25.70
2009,07,30,10,15,25.70
2009,07,30,10,16,25.80
2009,07,30,10,17,25.80
2009,07,30,10,18,25.80
2009,07,30,10,19,25.90
2009,07,30,10,20,26.00
2009,07,30,10,21,26.10
2009,07,30,10,22,26.20
2009,07,30,10,23,26.20
2009,07,30,10,24,26.30
2009,07,30,10,25,26.40
2009,07,30,10,26,26.50
2009,07,30,10,27,26.60
2009,07,30,10,28,26.60
2009,07,30,10,29,26.60
2009,07,30,10,30,26.60
2009,07,30,10,31,26.60
2009,07,30,10,32,26.60
2009,07,30,10,33,26.60
2009,07,30,10,34,26.60
2009,07,30,10,35,26.50
2009,07,30,10,36,26.40
2009,07,30,10,37,26.40
2009,07,30,10,38,26.40
2009,07,30,10,39,26.40
2009,07,30,10,40,26.60
2009,07,30,10,41,26.60
2009,07,30,10,42,26.60
2009,07,30,10,43,26.60
2009,07,30,10,44,26.60
2009,07,30,10,45,26.60
2009,07,30,10,46,26.60
2009,07,30,10,47,26.60
2009,07,30,10,48,26.60
2009,07,30,10,49,26.70
2009,07,30,10,50,26.60
2009,07,30,10,51,26.60
2009,07,30,10,52,26.60
2009,07,30,10,53,26.60
2009,07,30,10,54,26.60
2009,07,30,10,55,26.60
2009,07,30,10,56,26.60
2009,07,30,10,57,26.60
2009,07,30,10,58,26.70
2009,07,30,10,59,26.80
2009,07,30,11,00,26.80
2009,07,30,11,01,26.90
2009,07,30,11,02,26.90
2009,07,30,11,03,26.90
2009,07,30,11,04,27.00
2009,07,30,11,05,27.10
2009,07,30,11,06,27.10
2009,07,30,11,07,27.20
2009,07,30,11,08,27.20
2009,07,30,11,09,27.10
2009,07,30,11,10,27.10
2009,07,30,11,11,27.10
2009,07,30,11,12,27.10
2009,07,30,11,13,27.10
2009,07,30,11,14,27.10
2009,07,30,11,15,27.10
2009,07,30,11,16,27.20
2009,07,30,11,17,27.20
2009,07,30,11,18,27.20
2009,07,30,11,19,27.20
2009,07,30,11,20,27.10
2009,07,30,11,21,26.90
2009,07,30,11,22,26.80
2009,07,30,11,23,26.70
2009,07,30,11,24,26.80
2009,07,30,11,25,26.80
2009,07,30,11,26,26.80
2009,07,30,11,27,26.90
2009,07,30,11,28,26.90
2009,07,30,11,29,26.90
2009,07,30,11,30,26.90
2009,07,30,11,31,27.00
2009,07,30,11,32,27.20
2009,07,30,11,33,27.30
2009,07,30,11,34,27.50
2009,07,30,11,35,27.60
2009,07,30,11,36,27.50
2009,07,30,11,37,27.40
2009,07,30,11,38,27.20
2009,07,30,11,39,27.10
2009,07,30,11,40,27.00
2009,07,30,11,41,26.90
2009,07,30,11,42,26.90
2009,07,30,11,43,27.00
2009,07,30,11,44,27.10
2009,07,30,11,45,27.10
2009,07,30,11,46,27.20
2009,07,30,11,47,27.20
2009,07,30,11,48,27.30
2009,07,30,11,49,27.30
2009,07,30,11,50,27.50
2009,07,30,11,51,27.60
2009,07,30,11,52,27.60
2009,07,30,11,53,27.50
2009,07,30,11,54,27.40
2009,07,30,11,55,27.50
2009,07,30,11,56,27.60
2009,07,30,11,57,27.70
2009,07,30,11,58,27.80
2009,07,30,11,59,27.90
2009,07,30,12,00,27.80
2009,07,30,12,01,27.70
2009,07,30,12,02,27.60
2009,07,30,12,03,27.50
2009,07,30,12,04,27.50
2009,07,30,12,05,27.60
2009,07,30,12,06,27.50
2009,07,30,12,07,27.40
2009,07,30,12,08,27.40
2009,07,30,12,09,27.60
2009,07,30,12,10,27.60
2009,07,30,12,11,27.60
2009,07,30,12,12,27.60
2009,07,30,12,13,27.60
2009,07,30,12,14,27.60
2009,07,30,12,15,27.40
2009,07,30,12,16,27.40
2009,07,30,12,17,27.50
2009,07,30,12,18,27.60
2009,07,30,12,19,27.70
2009,07,30,12,20,27.70
2009,07,30,12,21,27.70
2009,07,30,12,22,27.50
2009,07,30,12,23,27.40
2009,07,30,12,24,27.30
2009,07,30,12,25,27.20
2009,07,30,12,26,27.30
2009,07,30,12,27,27.30
2009,07,30,12,28,27.30
2009,07,30,12,29,27.40
2009,07,30,12,30,27.50
2009,07,30,12,31,27.70
2009,07,30,12,32,27.80
2009,07,30,12,33,27.90
2009,07,30,12,34,28.00
2009,07,30,12,35,28.00
2009,07,30,12,36,28.00
2009,07,30,12,37,27.90
2009,07,30,12,38,28.00
2009,07,30,12,39,28.00
2009,07,30,12,40,28.10
2009,07,30,12,41,28.10
2009,07,30,12,42,28.20
2009,07,30,12,43,28.30
2009,07,30,12,44,28.30
2009,07,30,12,45,28.30
2009,07,30,12,46,28.30
2009,07,30,12,47,28.20
2009,07,30,12,48,28.20
2009,07,30,12,49,28.20
2009,07,30,12,50,28.20
2009,07,30,12,51,28.20
2009,07,30,12,52,28.20
2009,07,30,12,53,28.10
2009,07,30,12,54,28.20
2009,07,30,12,55,28.20
2009,07,30,12,56,28.20
2009,07,30,12,57,28.20
2009,07,30,12,58,28.20
2009,07,30,12,59,28.20
2009,07,30,13,00,28.20
2009,07,30,13,01,28.10
2009,07,30,13,02,28.00
2009,07,30,13,03,27.90
2009,07,30,13,04,27.90
2009,07,30,13,05,27.90
2009,07,30,13,06,27.90
2009,07,30,13,07,27.90
2009,07,30,13,08,27.90
2009,07,30,13,09,27.90
2009,07,30,13,10,27.90
2009,07,30,13,11,27.80
2009,07,30,13,12,27.80
2009,07,30,13,13,28.00
2009,07,30,13,14,28.10
2009,07,30,13,15,28.20
2009,07,30,13,16,28.30
2009,07,30,13,17,28.30
2009,07,30,13,18,28.30
2009,07,30,13,19,28.30
2009,07,30,13,20,28.30
2009,07,30,13,21,28.40
2009,07,30,13,22,28.30
2009,07,30,13,23,28.20
2009,07,30,13,24,28.00
2009,07,30,13,25,28.00
2009,07,30,13,26,28.00
2009,07,30,13,27,28.10
2009,07,30,13,28,28.10
2009,07,30,13,29,28.10
2009,07,30,13,30,28.10
2009,07,30,13,31,28.20
2009,07,30,13,32,28.30
2009,07,30,13,33,28.30
2009,07,30,13,34,28.30
2009,07,30,13,35,28.30
2009,07,30,13,36,28.40
2009,07,30,13,37,28.40
2009,07,30,13,38,28.50
2009,07,30,13,39,28.60
2009,07,30,13,40,28.70
2009,07,30,13,41,28.70
2009,07,30,13,42,28.70
2009,07,30,13,43,28.70
2009,07,30,13,44,28.80
2009,07,30,13,45,28.90
2009,07,30,13,46,28.90
2009,07,30,13,47,29.10
2009,07,30,13,48,29.20
2009,07,30,13,49,29.30
2009,07,30,13,50,29.30
2009,07,30,13,51,29.30
2009,07,30,13,52,29.30
2009,07,30,13,53,29.30
2009,07,30,13,54,29.40
2009,07,30,13,55,29.50
2009,07,30,13,56,29.60
2009,07,30,13,57,29.70
2009,07,30,13,58,29.80
2009,07,30,13,59,29.90
2009,07,30,14,00,30.10
2009,07,30,14,01,30.20
2009,07,30,14,02,30.30
2009,07,30,14,03,30.50
2009,07,30,14,04,30.70
2009,07,30,14,05,30.80
2009,07,30,14,06,30.90
2009,07,30,14,07,31.00
2009,07,30,14,08,31.00
2009,07,30,14,09,31.10
2009,07,30,14,10,31.10
2009,07,30,14,11,31.20
2009,07,30,14,12,31.30
2009,07,30,14,13,31.50
2009,07,30,14,14,31.70
2009,07,30,14,15,31.90
2009,07,30,14,16,31.90
2009,07,30,14,17,32.00
2009,07,30,14,18,32.10
2009,07,30,14,19,32.10
2009,07,30,14,20,32.20
2009,07,30,14,21,32.20
2009,07,30,14,22,32.30
2009,07,30,14,23,32.30
2009,07,30,14,24,32.40
2009,07,30,14,25,32.40
2009,07,30,14,26,32.40
2009,07,30,14,27,32.40
2009,07,30,14,28,32.30
2009,07,30,14,29,32.40
2009,07,30,14,30,32.40
2009,07,30,14,31,32.50
2009,07,30,14,32,32.60
2009,07,30,14,33,32.80
2009,07,30,14,34,32.80
2009,07,30,14,35,32.80
2009,07,30,14,36,32.80
2009,07,30,14,37,32.80
2009,07,30,14,38,32.80
2009,07,30,14,39,32.90
2009,07,30,14,40,33.00
2009,07,30,14,41,33.20
2009,07,30,14,42,33.20
2009,07,30,14,43,33.20
2009,07,30,14,44,33.00
2009,07,30,14,45,32.80
2009,07,30,14,46,32.60
2009,07,30,14,47,32.60
2009,07,30,14,48,32.60
2009,07,30,14,49,32.70
2009,07,30,14,50,32.90
2009,07,30,14,51,33.10
2009,07,30,14,52,33.20
2009,07,30,14,53,33.20
2009,07,30,14,54,33.30
2009,07,30,14,55,33.40
2009,07,30,14,56,33.40
2009,07,30,14,57,33.30
2009,07,30,14,58,33.20
2009,07,30,14,59,33.00
2009,07,30,15,00,32.90
2009,07,30,15,01,32.90
2009,07,30,15,02,32.90
2009,07,30,15,03,33.00
2009,07,30,15,04,33.10
2009,07,30,15,05,33.10
2009,07,30,15,06,33.20
2009,07,30,15,07,33.40
2009,07,30,15,08,33.50
2009,07,30,15,09,33.50
2009,07,30,15,10,33.60
2009,07,30,15,11,33.60
2009,07,30,15,12,33.70
2009,07,30,15,13,33.80
2009,07,30,15,14,34.00
2009,07,30,15,15,34.10
2009,07,30,15,16,34.20
2009,07,30,15,17,34.20
2009,07,30,15,18,34.30
2009,07,30,15,19,34.30
2009,07,30,15,20,34.40
2009,07,30,15,21,34.40
2009,07,30,15,22,34.40
2009,07,30,15,23,34.60
2009,07,30,15,24,34.60
2009,07,30,15,25,34.50
2009,07,30,15,26,34.40
2009,07,30,15,27,34.20
2009,07,30,15,28,34.10
2009,07,30,15,29,34.00
2009,07,30,15,30,34.00
2009,07,30,15,31,34.00
2009,07,30,15,32,34.00
2009,07,30,15,33,33.90
2009,07,30,15,34,33.80
2009,07,30,15,35,33.70
2009,07,30,15,36,33.70
2009,07,30,15,37,33.70
2009,07,30,15,38,33.70
2009,07,30,15,39,33.60
2009,07,30,15,40,33.50
2009,07,30,15,41,33.30
2009,07,30,15,42,33.20
2009,07,30,15,43,33.20
2009,07,30,15,44,33.20
2009,07,30,15,45,33.30
2009,07,30,15,46,33.40
2009,07,30,15,47,33.50
2009,07,30,15,48,33.50
2009,07,30,15,49,33.50
2009,07,30,15,50,33.50
2009,07,30,15,51,33.60
2009,07,30,15,52,33.60
2009,07,30,15,53,33.60
2009,07,30,15,54,33.70
2009,07,30,15,55,33.70
2009,07,30,15,56,33.80
2009,07,30,15,57,34.00
2009,07,30,15,58,34.00
2009,07,30,15,59,34.00
2009,07,30,16,00,33.90
2009,07,30,16,01,33.80
2009,07,30,16,02,33.80
2009,07,30,16,03,34.00
2009,07,30,16,04,34.00
2009,07,30,16,05,34.10
2009,07,30,16,06,34.10
2009,07,30,16,07,34.20
2009,07,30,16,08,34.20
2009,07,30,16,09,34.30
2009,07,30,16,10,34.30
2009,07,30,16,11,34.30
2009,07,30,16,12,34.20
2009,07,30,16,13,34.20
2009,07,30,16,14,34.20
2009,07,30,16,15,34.10
2009,07,30,16,16,34.00
2009,07,30,16,17,34.00
2009,07,30,16,18,34.00
2009,07,30,16,19,33.80
2009,07,30,16,20,33.80
2009,07,30,16,21,33.80
2009,07,30,16,22,33.80
2009,07,30,16,23,33.80
2009,07,30,16,24,33.80
2009,07,30,16,25,34.00
2009,07,30,16,26,34.00
2009,07,30,16,27,34.00
2009,07,30,16,28,34.10
2009,07,30,16,29,34.10
2009,07,30,16,30,34.10
2009,07,30,16,31,34.10
2009,07,30,16,32,34.10
2009,07,30,16,33,34.10
2009,07,30,16,34,34.10
2009,07,30,16,35,34.10
2009,07,30,16,36,34.20
2009,07,30,16,37,34.10
2009,07,30,16,38,34.10
2009,07,30,16,39,34.00
2009,07,30,16,40,34.00
2009,07,30,16,41,34.00
2009,07,30,16,42,34.00
2009,07,30,16,43,34.10
2009,07,30,16,44,34.10
2009,07,30,16,45,34.10
2009,07,30,16,46,34.10
2009,07,30,16,47,34.10
2009,07,30,16,48,34.10
2009,07,30,16,49,34.10
2009,07,30,16,50,34.20
2009,07,30,16,51,34.30
2009,07,30,16,52,34.30
2009,07,30,16,53,34.30
2009,07,30,16,54,34.20
2009,07,30,16,55,34.30
2009,07,30,16,56,34.30
2009,07,30,16,57,34.40
2009,07,30,16,58,34.40
2009,07,30,16,59,34.50
2009,07,30,17,00,34.60
2009,07,30,17,01,34.50
2009,07,30,17,02,34.60
2009,07,30,17,03,34.60
2009,07,30,17,04,34.40
2009,07,30,17,05,34.40
2009,07,30,17,06,34.40
2009,07,30,17,07,34.30
2009,07,30,17,08,34.20
2009,07,30,17,09,34.10
2009,07,30,17,10,34.00
2009,07,30,17,11,33.80
2009,07,30,17,12,33.80
2009,07,30,17,13,33.80
2009,07,30,17,14,33.70
2009,07,30,17,15,33.70
2009,07,30,17,16,33.80
2009,07,30,17,17,33.80
2009,07,30,17,18,33.80
2009,07,30,17,19,34.00